| time (UTC) | temp F | wind direction | speed MPH | gust MPH | rain 1hr in | rain 24hr in | rain mn in | humidity % | barometer mb |
| 20260506122506 | 53 | 152 | 3.0 | 7.0 | 0.00 | 0.00 | 0.00 | 64 | 1009.1 |
| 20260506122008 | 53 | 59 | 3.0 | 7.0 | 0.00 | 0.00 | 0.00 | 64 | 1009.1 |
| 20260506121507 | 53 | 40 | 3.0 | 7.0 | 0.00 | 0.00 | 0.00 | 64 | 1009.1 |
| 20260506121004 | 54 | 60 | 3.0 | 7.0 | 0.00 | 0.00 | 0.00 | 64 | 1009.0 |
| 20260506120504 | 54 | 122 | 3.0 | 7.0 | 0.00 | 0.00 | 0.00 | 63 | 1009.0 |
| 20260506115505 | 54 | 89 | 3.0 | 9.0 | 0.00 | 0.00 | 0.00 | 62 | 1008.9 |
| 20260506115004 | 54 | 117 | 3.0 | 8.0 | 0.00 | 0.00 | 0.00 | 63 | 1008.8 |
| 20260506114505 | 54 | 126 | 3.0 | 8.0 | 0.00 | 0.00 | 0.00 | 63 | 1008.8 |
| 20260506114004 | 54 | 51 | 3.0 | 6.0 | 0.00 | 0.00 | 0.00 | 64 | 1008.8 |
| 20260506113006 | 54 | 98 | 3.0 | 10.0 | 0.00 | 0.00 | 0.00 | 61 | 1008.7 |
| 20260506112504 | 54 | 171 | 3.0 | 10.0 | 0.00 | 0.00 | 0.00 | 61 | 1008.8 |
| 20260506112001 | 54 | 28 | 3.0 | 8.0 | 0.00 | 0.00 | 0.00 | 60 | 1008.8 |
| 20260506111500 | 53 | 135 | 3.0 | 7.0 | 0.00 | 0.00 | 0.00 | 61 | 1008.8 |
| 20260506111000 | 53 | 114 | 2.0 | 6.0 | 0.00 | 0.00 | 0.00 | 62 | 1008.7 |
| 20260506110458 | 53 | 135 | 2.0 | 7.0 | 0.00 | 0.00 | 0.00 | 65 | 1008.7 |
| 20260506105958 | 53 | 35 | 2.0 | 7.0 | 0.00 | 0.00 | 0.00 | 64 | 1008.7 |
| 20260506105459 | 53 | 117 | 3.0 | 7.0 | 0.00 | 0.00 | 0.00 | 63 | 1008.8 |
| 20260506104957 | 53 | 117 | 3.0 | 7.0 | 0.00 | 0.00 | 0.00 | 65 | 1008.8 |
| 20260506104456 | 53 | 35 | 3.0 | 10.0 | 0.00 | 0.00 | 0.00 | 63 | 1008.7 |
| 20260506103959 | 53 | 46 | 3.0 | 10.0 | 0.00 | 0.00 | 0.00 | 63 | 1008.7 |
| 20260506103455 | 53 | 63 | 3.0 | 7.0 | 0.00 | 0.00 | 0.00 | 63 | 1008.7 |
| 20260506102954 | 53 | 95 | 3.0 | 6.0 | 0.00 | 0.00 | 0.00 | 64 | 1008.6 |
| 20260506101953 | 53 | 8 | 3.0 | 8.0 | 0.00 | 0.00 | 0.00 | 63 | 1008.5 |
| 20260506101453 | 53 | 68 | 4.0 | 8.0 | 0.00 | 0.00 | 0.00 | 63 | 1008.5 |
| 20260506100952 | 53 | 44 | 4.0 | 8.0 | 0.00 | 0.00 | 0.00 | 63 | 1008.5 |
| 20260506100446 | 52 | 60 | 3.0 | 7.0 | 0.00 | 0.00 | 0.00 | 63 | 1008.5 |
| 20260506095946 | 52 | 74 | 3.0 | 8.0 | 0.00 | 0.00 | 0.00 | 64 | 1008.5 |
| 20260506095446 | 52 | 117 | 3.0 | 8.0 | 0.00 | 0.00 | 0.00 | 65 | 1008.5 |
| 20260506094941 | 52 | 46 | 4.0 | 9.0 | 0.00 | 0.00 | 0.00 | 64 | 1008.5 |
| 20260506094439 | 52 | 76 | 3.0 | 9.0 | 0.00 | 0.00 | 0.00 | 63 | 1008.4 |
| 20260506093941 | 52 | 96 | 2.0 | 6.0 | 0.00 | 0.00 | 0.00 | 66 | 1008.4 |
| 20260506093434 | 52 | 1 | 2.0 | 5.0 | 0.00 | 0.00 | 0.00 | 67 | 1008.4 |
| 20260506092934 | 52 | 102 | 2.0 | 5.0 | 0.00 | 0.00 | 0.00 | 66 | 1008.3 |
| 20260506092432 | 52 | 81 | 2.0 | 5.0 | 0.00 | 0.00 | 0.00 | 67 | 1008.3 |
| 20260506091928 | 52 | 75 | 3.0 | 5.0 | 0.00 | 0.00 | 0.00 | 67 | 1008.4 |
| 20260506091428 | 52 | 51 | 3.0 | 5.0 | 0.00 | 0.00 | 0.00 | 67 | 1008.3 |
| 20260506090928 | 51 | 89 | 3.0 | 5.0 | 0.00 | 0.00 | 0.00 | 67 | 1008.3 |
| 20260506090426 | 51 | 108 | 3.0 | 10.0 | 0.00 | 0.00 | 0.00 | 67 | 1008.3 |
| 20260506085925 | 51 | 54 | 3.0 | 10.0 | 0.00 | 0.00 | 0.00 | 67 | 1008.2 |
| 20260506084923 | 51 | 135 | 3.0 | 8.0 | 0.00 | 0.00 | 0.00 | 67 | 1008.2 |
| 20260506084424 | 51 | 102 | 3.0 | 8.0 | 0.00 | 0.00 | 0.00 | 68 | 1008.1 |
| 20260506083931 | 51 | 20 | 3.0 | 8.0 | 0.00 | 0.00 | 0.00 | 69 | 1008.1 |
| 20260506083421 | 51 | 60 | 3.0 | 8.0 | 0.00 | 0.00 | 0.00 | 70 | 1008.6 |
| 20260506082921 | 51 | 46 | 3.0 | 10.0 | 0.00 | 0.00 | 0.00 | 71 | 1008.0 |
| 20260506082421 | 51 | 46 | 3.0 | 10.0 | 0.00 | 0.00 | 0.00 | 71 | 1007.9 |
| 20260506081916 | 51 | 117 | 3.0 | 9.0 | 0.00 | 0.00 | 0.00 | 73 | 1007.9 |
| 20260506081417 | 51 | 76 | 3.0 | 8.0 | 0.00 | 0.00 | 0.00 | 75 | 1007.9 |
| 20260506080916 | 50 | 21 | 3.0 | 8.0 | 0.00 | 0.00 | 0.00 | 76 | 1007.8 |
| 20260506080425 | 50 | 210 | 3.0 | 8.0 | 0.00 | 0.00 | 0.00 | 75 | 1007.9 |
| 20260506073413 | 50 | 115 | 2.0 | 8.0 | 0.00 | 0.00 | 0.00 | 79 | 1007.8 |
| 20260506072915 | 50 | 53 | 3.0 | 8.0 | 0.00 | 0.00 | 0.00 | 79 | 1007.9 |
| 20260506072414 | 50 | 63 | 3.0 | 8.0 | 0.00 | 0.00 | 0.00 | 81 | 1007.8 |
| 20260506071907 | 50 | 351 | 3.0 | 8.0 | 0.00 | 0.00 | 0.00 | 81 | 1007.8 |
| 20260506071421 | 50 | 102 | 3.0 | 7.0 | 0.00 | 0.00 | 0.00 | 82 | 1007.7 |
| 20260506070905 | 50 | 157 | 2.0 | 7.0 | 0.00 | 0.00 | 0.00 | 82 | 1007.7 |
| 20260506070406 | 50 | 336 | 3.0 | 10.0 | 0.00 | 0.00 | 0.00 | 83 | 1007.7 |
| 20260506062359 | 49 | 20 | 2.0 | 5.0 | 0.00 | 0.00 | 0.00 | 83 | 1007.7 |
| 20260506061900 | 49 | 46 | 3.0 | 11.0 | 0.00 | 0.00 | 0.00 | 82 | 1007.7 |
| 20260506060359 | 49 | 11 | 3.0 | 7.0 | 0.00 | 0.00 | 0.00 | 81 | 1007.6 |
| 20260506051359 | 49 | 25 | 2.0 | 5.0 | 0.00 | 0.00 | 0.00 | 78 | 1007.6 |
| 20260506050859 | 49 | 46 | 2.0 | 4.0 | 0.00 | 0.00 | 0.00 | 78 | 1007.6 |
| 20260506050401 | 49 | 295 | 1.0 | 4.0 | 0.00 | 0.00 | 0.00 | 80 | 1007.5 |
| 20260506044352 | 49 | 63 | 1.0 | 4.0 | 0.00 | 0.00 | 0.00 | 82 | 1007.5 |
| 20260506043847 | 49 | 108 | 2.0 | 5.0 | 0.00 | 0.00 | 0.00 | 82 | 1007.4 |
| 20260506043348 | 49 | 89 | 2.0 | 6.0 | 0.00 | 0.00 | 0.00 | 83 | 1007.4 |
| 20260506042848 | 49 | 1 | 2.0 | 6.0 | 0.00 | 0.00 | 0.00 | 83 | 1007.4 |
| 20260506042347 | 49 | 108 | 2.0 | 5.0 | 0.00 | 0.00 | 0.00 | 83 | 1007.4 |
| 20260506041846 | 49 | 352 | 2.0 | 6.0 | 0.00 | 0.00 | 0.00 | 84 | 1007.4 |
| 20260506041342 | 49 | 9 | 2.0 | 6.0 | 0.00 | 0.00 | 0.00 | 84 | 1007.3 |
| 20260506040843 | 49 | 345 | 2.0 | 6.0 | 0.00 | 0.00 | 0.00 | 84 | 1007.4 |
| 20260506040341 | 49 | 11 | 2.0 | 6.0 | 0.00 | 0.00 | 0.00 | 84 | 1007.4 |
| 20260506035835 | 49 | 44 | 2.0 | 6.0 | 0.00 | 0.00 | 0.00 | 84 | 1007.3 |
| 20260506035335 | 49 | 344 | 3.0 | 8.0 | 0.00 | 0.00 | 0.00 | 84 | 1007.3 |
| 20260506034836 | 49 | 13 | 3.0 | 8.0 | 0.00 | 0.00 | 0.00 | 84 | 1007.3 |
| 20260506034333 | 49 | 58 | 3.0 | 8.0 | 0.00 | 0.00 | 0.00 | 84 | 1007.4 |
| 20260506033831 | 49 | 331 | 3.0 | 8.0 | 0.00 | 0.00 | 0.00 | 84 | 1007.5 |
| 20260506032330 | 49 | 1 | 4.0 | 8.0 | 0.00 | 0.00 | 0.00 | 85 | 1007.6 |
| 20260506031827 | 49 | 1 | 4.0 | 8.0 | 0.00 | 0.00 | 0.00 | 85 | 1007.6 |
| 20260506031322 | 49 | 335 | 3.0 | 9.0 | 0.00 | 0.00 | 0.00 | 85 | 1007.6 |
| 20260506030823 | 49 | 44 | 4.0 | 9.0 | 0.00 | 0.00 | 0.00 | 85 | 1007.6 |
| 20260506030324 | 49 | 15 | 3.0 | 8.0 | 0.00 | 0.00 | 0.00 | 86 | 1007.6 |
| 20260506025321 | 49 | 89 | 4.0 | 9.0 | 0.00 | 0.00 | 0.00 | 86 | 1007.8 |
| 20260506024820 | 49 | 8 | 3.0 | 9.0 | 0.00 | 0.00 | 0.00 | 86 | 1007.8 |
| 20260506024316 | 49 | 15 | 4.0 | 9.0 | 0.00 | 0.00 | 0.00 | 86 | 1007.8 |
| 20260506023815 | 49 | 314 | 4.0 | 9.0 | 0.00 | 0.00 | 0.00 | 86 | 1007.8 |
| 20260506023314 | 49 | 354 | 4.0 | 10.0 | 0.00 | 0.00 | 0.00 | 86 | 1007.8 |
| 20260506022811 | 50 | 354 | 4.0 | 10.0 | 0.00 | 0.00 | 0.00 | 86 | 1007.8 |
| 20260506021812 | 50 | 8 | 4.0 | 9.0 | 0.00 | 0.00 | 0.00 | 86 | 1007.8 |
| 20260506021306 | 50 | 32 | 4.0 | 9.0 | 0.00 | 0.00 | 0.00 | 87 | 1008.0 |
| 20260506020808 | 50 | 28 | 4.0 | 9.0 | 0.00 | 0.00 | 0.00 | 87 | 1007.9 |
| 20260506020308 | 50 | 20 | 3.0 | 8.0 | 0.00 | 0.00 | 0.00 | 87 | 1007.9 |
| 20260506015803 | 50 | 354 | 3.0 | 8.0 | 0.00 | 0.00 | 0.00 | 87 | 1008.0 |
| 20260506015305 | 50 | 89 | 4.0 | 10.0 | 0.00 | 0.00 | 0.00 | 87 | 1008.1 |
| 20260506014804 | 50 | 98 | 4.0 | 10.0 | 0.00 | 0.00 | 0.00 | 86 | 1008.1 |
| 20260506014301 | 50 | 46 | 3.0 | 11.0 | 0.00 | 0.00 | 0.00 | 86 | 1008.2 |
| 20260506013801 | 50 | 30 | 3.0 | 11.0 | 0.00 | 0.00 | 0.00 | 86 | 1008.2 |
| 20260506012256 | 50 | 46 | 3.0 | 8.0 | 0.00 | 0.00 | 0.00 | 86 | 1008.2 |
| 20260506011757 | 50 | 6 | 4.0 | 10.0 | 0.00 | 0.00 | 0.00 | 86 | 1008.2 |
| 20260506010805 | 50 | 18 | 4.0 | 9.0 | 0.00 | 0.00 | 0.00 | 85 | 1008.3 |
| 20260506010254 | 50 | 46 | 4.0 | 11.0 | 0.00 | 0.00 | 0.00 | 85 | 1008.3 |
| 20260506005751 | 49 | 39 | 4.0 | 11.0 | 0.00 | 0.00 | 0.00 | 84 | 1008.3 |
| 20260506005250 | 49 | 350 | 4.0 | 10.0 | 0.00 | 0.00 | 0.00 | 84 | 1008.3 |
| 20260506004750 | 49 | 25 | 4.0 | 11.0 | 0.00 | 0.00 | 0.00 | 84 | 1008.4 |
| 20260506004249 | 49 | 32 | 3.0 | 11.0 | 0.00 | 0.00 | 0.00 | 84 | 1008.4 |
| 20260506003750 | 49 | 59 | 3.0 | 9.0 | 0.00 | 0.00 | 0.00 | 83 | 1008.4 |
| 20260506001747 | 49 | 347 | 3.0 | 8.0 | 0.00 | 0.00 | 0.00 | 83 | 1008.6 |
| 20260506000745 | 49 | 8 | 4.0 | 8.0 | 0.00 | 0.00 | 0.00 | 82 | 1008.6 |
| 20260506000247 | 49 | 49 | 3.0 | 8.0 | 0.00 | 0.00 | 0.00 | 82 | 1008.7 |
| 20260505235745 | 49 | 334 | 3.0 | 8.0 | 0.00 | 0.00 | 0.00 | 82 | 1008.8 |
| 20260505235242 | 49 | 1 | 3.0 | 8.0 | 0.00 | 0.00 | 0.00 | 82 | 1008.9 |
| 20260505234750 | 49 | 346 | 3.0 | 8.0 | 0.00 | 0.00 | 0.00 | 82 | 1009.0 |
| 20260505234242 | 49 | 20 | 3.0 | 7.0 | 0.00 | 0.00 | 0.00 | 83 | 1009.0 |
| 20260505233740 | 49 | 350 | 3.0 | 7.0 | 0.00 | 0.00 | 0.00 | 83 | 1009.1 |
| 20260505233242 | 49 | 37 | 3.0 | 8.0 | 0.00 | 0.00 | 0.00 | 83 | 1009.1 |
| 20260505232739 | 49 | 28 | 3.0 | 8.0 | 0.00 | 0.00 | 0.00 | 83 | 1009.1 |
| 20260505231739 | 49 | 1 | 4.0 | 9.0 | 0.00 | 0.00 | 0.00 | 83 | 1009.0 |
| 20260505231234 | 49 | 27 | 4.0 | 9.0 | 0.00 | 0.00 | 0.00 | 83 | 1009.1 |
| 20260505230735 | 49 | 346 | 4.0 | 9.0 | 0.00 | 0.00 | 0.00 | 83 | 1009.1 |
| 20260505230234 | 49 | 342 | 3.0 | 9.0 | 0.00 | 0.00 | 0.00 | 82 | 1009.1 |
| 20260505225745 | 49 | 63 | 3.0 | 8.0 | 0.00 | 0.00 | 0.00 | 82 | 1009.1 |
| 20260505225232 | 49 | 40 | 4.0 | 9.0 | 0.00 | 0.00 | 0.00 | 82 | 1009.1 |
| 20260505224734 | 49 | 44 | 4.0 | 9.0 | 0.00 | 0.00 | 0.00 | 82 | 1009.1 |
| 20260505224229 | 49 | 354 | 4.0 | 10.0 | 0.00 | 0.00 | 0.00 | 82 | 1009.2 |
| 20260505223230 | 49 | 21 | 4.0 | 10.0 | 0.00 | 0.00 | 0.00 | 81 | 1009.3 |
| 20260505222722 | 49 | 28 | 4.0 | 10.0 | 0.00 | 0.00 | 0.00 | 81 | 1009.3 |
| 20260505222222 | 49 | 30 | 4.0 | 10.0 | 0.00 | 0.00 | 0.00 | 81 | 1009.4 |
| 20260505221722 | 49 | 18 | 4.0 | 9.0 | 0.00 | 0.00 | 0.00 | 81 | 1009.3 |
| 20260505221223 | 49 | 8 | 4.0 | 9.0 | 0.00 | 0.00 | 0.00 | 81 | 1009.4 |
| 20260505220724 | 49 | 37 | 4.0 | 9.0 | 0.00 | 0.00 | 0.00 | 81 | 1009.4 |
| 20260505220220 | 49 | 30 | 4.0 | 11.0 | 0.00 | 0.00 | 0.00 | 80 | 1009.5 |
| 20260505215222 | 49 | 351 | 3.0 | 7.0 | 0.00 | 0.00 | 0.00 | 81 | 1009.6 |
| 20260505214215 | 49 | 18 | 4.0 | 9.0 | 0.00 | 0.00 | 0.00 | 81 | 1009.6 |
| 20260505213715 | 49 | 15 | 4.0 | 11.0 | 0.00 | 0.00 | 0.00 | 81 | 1009.6 |
| 20260505213215 | 49 | 15 | 4.0 | 11.0 | 0.00 | 0.00 | 0.00 | 81 | 1009.7 |
| 20260505212212 | 49 | 28 | 3.0 | 8.0 | 0.00 | 0.00 | 0.00 | 81 | 1009.8 |
| 20260505211713 | 49 | 1 | 3.0 | 8.0 | 0.00 | 0.00 | 0.00 | 81 | 1009.8 |
| 20260505211210 | 50 | 100 | 3.0 | 8.0 | 0.00 | 0.00 | 0.00 | 81 | 1009.8 |
| 20260505210711 | 50 | 84 | 3.0 | 10.0 | 0.00 | 0.00 | 0.00 | 81 | 1009.8 |
| 20260505210211 | 50 | 20 | 4.0 | 10.0 | 0.00 | 0.00 | 0.00 | 81 | 1009.7 |
| 20260505205709 | 50 | 9 | 3.0 | 7.0 | 0.00 | 0.00 | 0.00 | 81 | 1009.9 |
| 20260505205210 | 50 | 25 | 3.0 | 14.0 | 0.00 | 0.00 | 0.00 | 81 | 1009.9 |
| 20260505204708 | 50 | 18 | 3.0 | 14.0 | 0.00 | 0.00 | 0.00 | 81 | 1010.0 |
| 20260505204208 | 50 | 18 | 4.0 | 14.0 | 0.00 | 0.00 | 0.00 | 81 | 1009.9 |
| 20260505203706 | 50 | 322 | 4.0 | 14.0 | 0.00 | 0.00 | 0.00 | 81 | 1009.9 |
| 20260505203206 | 50 | 25 | 4.0 | 10.0 | 0.00 | 0.00 | 0.00 | 81 | 1010.0 |
| 20260505202702 | 50 | 52 | 4.0 | 13.0 | 0.00 | 0.00 | 0.00 | 81 | 1010.0 |
| 20260505202201 | 50 | 83 | 4.0 | 13.0 | 0.00 | 0.00 | 0.00 | 81 | 1010.1 |
| 20260505201702 | 50 | 51 | 4.0 | 12.0 | 0.00 | 0.00 | 0.00 | 81 | 1010.0 |
| 20260505201159 | 50 | 25 | 4.0 | 12.0 | 0.00 | 0.00 | 0.00 | 81 | 1009.9 |
| 20260505200700 | 50 | 343 | 5.0 | 12.0 | 0.00 | 0.00 | 0.00 | 81 | 1010.0 |
| 20260505200200 | 50 | 352 | 5.0 | 11.0 | 0.00 | 0.00 | 0.00 | 81 | 1009.9 |
| 20260505195156 | 50 | 18 | 4.0 | 11.0 | 0.00 | 0.00 | 0.00 | 82 | 1009.9 |
| 20260505194656 | 50 | 6 | 4.0 | 12.0 | 0.00 | 0.00 | 0.00 | 82 | 1009.9 |
| 20260505194155 | 50 | 11 | 5.0 | 12.0 | 0.00 | 0.00 | 0.00 | 82 | 1009.8 |
| 20260505193654 | 50 | 341 | 5.0 | 13.0 | 0.00 | 0.00 | 0.00 | 82 | 1009.8 |
| 20260505193155 | 50 | 348 | 5.0 | 13.0 | 0.00 | 0.00 | 0.00 | 82 | 1009.8 |
| 20260505192652 | 50 | 1 | 5.0 | 12.0 | 0.00 | 0.00 | 0.00 | 82 | 1009.8 |
| 20260505192152 | 50 | 353 | 5.0 | 12.0 | 0.00 | 0.00 | 0.00 | 82 | 1009.8 |
| 20260505190647 | 50 | 356 | 5.0 | 11.0 | 0.00 | 0.00 | 0.00 | 82 | 1009.6 |
| 20260505190147 | 50 | 353 | 5.0 | 14.0 | 0.00 | 0.00 | 0.00 | 82 | 1009.5 |
| 20260505185145 | 50 | 322 | 4.0 | 10.0 | 0.00 | 0.00 | 0.00 | 82 | 1009.4 |
| 20260505184644 | 51 | 32 | 4.0 | 13.0 | 0.00 | 0.00 | 0.00 | 81 | 1009.5 |
| 20260505184143 | 51 | 44 | 5.0 | 13.0 | 0.00 | 0.00 | 0.00 | 81 | 1009.4 |
| 20260505183143 | 51 | 21 | 6.0 | 13.0 | 0.00 | 0.00 | 0.00 | 81 | 1009.3 |
| 20260505181641 | 51 | 4 | 5.0 | 12.0 | 0.00 | 0.00 | 0.00 | 81 | 1009.3 |
| 20260505181136 | 51 | 46 | 5.0 | 12.0 | 0.00 | 0.00 | 0.00 | 81 | 1009.3 |
| 20260505180635 | 51 | 356 | 5.0 | 12.0 | 0.00 | 0.00 | 0.00 | 81 | 1009.3 |
| 20260505180135 | 51 | 13 | 4.0 | 13.0 | 0.00 | 0.00 | 0.00 | 81 | 1009.3 |
| 20260505175634 | 52 | 20 | 3.0 | 13.0 | 0.00 | 0.00 | 0.00 | 81 | 1009.2 |
| 20260505175135 | 52 | 110 | 3.0 | 14.0 | 0.00 | 0.00 | 0.00 | 81 | 1009.3 |
| 20260505174633 | 52 | 346 | 5.0 | 14.0 | 0.00 | 0.00 | 0.00 | 81 | 1009.3 |
| 20260505174136 | 52 | 15 | 5.0 | 14.0 | 0.00 | 0.00 | 0.00 | 81 | 1009.2 |
| 20260505173632 | 52 | 23 | 5.0 | 14.0 | 0.00 | 0.00 | 0.00 | 80 | 1009.3 |
| 20260505173137 | 52 | 1 | 5.0 | 14.0 | 0.00 | 0.00 | 0.00 | 80 | 1009.3 |
| 20260505172634 | 52 | 353 | 5.0 | 14.0 | 0.00 | 0.00 | 0.00 | 80 | 1009.3 |
| 20260505172131 | 53 | 39 | 6.0 | 15.0 | 0.00 | 0.00 | 0.00 | 79 | 1009.4 |
| 20260505171631 | 53 | 135 | 5.0 | 15.0 | 0.00 | 0.00 | 0.00 | 79 | 1009.4 |
| 20260505171130 | 53 | 347 | 4.0 | 11.0 | 0.00 | 0.00 | 0.00 | 79 | 1009.3 |
| 20260505165626 | 53 | 1 | 5.0 | 12.0 | 0.00 | 0.00 | 0.00 | 78 | 1009.4 |
| 20260505164627 | 53 | 32 | 5.0 | 15.0 | 0.00 | 0.00 | 0.00 | 77 | 1009.4 |
| 20260505164126 | 54 | 39 | 5.0 | 15.0 | 0.00 | 0.00 | 0.00 | 77 | 1009.5 |
| 20260505163627 | 54 | 75 | 5.0 | 14.0 | 0.00 | 0.00 | 0.00 | 77 | 1009.4 |
| 20260505163121 | 54 | 352 | 6.0 | 14.0 | 0.00 | 0.00 | 0.00 | 76 | 1009.4 |
| 20260505162622 | 54 | 18 | 6.0 | 15.0 | 0.00 | 0.00 | 0.00 | 75 | 1009.5 |
| 20260505162116 | 54 | 30 | 6.0 | 15.0 | 0.00 | 0.00 | 0.00 | 75 | 1009.4 |
| 20260505161617 | 54 | 16 | 5.0 | 12.0 | 0.00 | 0.00 | 0.00 | 75 | 1009.4 |
| 20260505161116 | 54 | 329 | 5.0 | 12.0 | 0.00 | 0.00 | 0.00 | 74 | 1009.4 |
| 20260505160618 | 54 | 18 | 4.0 | 10.0 | 0.00 | 0.00 | 0.00 | 73 | 1009.4 |
| 20260505160115 | 55 | 74 | 4.0 | 10.0 | 0.00 | 0.00 | 0.00 | 73 | 1009.4 |
| 20260505152621 | 54 | 344 | 5.0 | 12.0 | 0.00 | 0.00 | 0.00 | 74 | 1009.6 |
| 20260505151610 | 54 | 37 | 5.0 | 13.0 | 0.00 | 0.00 | 0.00 | 75 | 1009.6 |
| 20260505150701 | 54 | 25 | 4.0 | 11.0 | 0.00 | 0.00 | 0.00 | 75 | 1009.8 |
| 20260505150202 | 55 | 349 | 5.0 | 12.0 | 0.00 | 0.00 | 0.00 | 75 | 1009.7 |
| 20260505140201 | 54 | 89 | 5.0 | 10.0 | 0.00 | 0.00 | 0.00 | 78 | 1010.4 |
| 20260505124647 | 53 | 46 | 2.0 | 5.0 | 0.00 | 0.00 | 0.00 | 81 | 1010.8 |
| 20260505124141 | 53 | 89 | 2.0 | 7.0 | 0.00 | 0.00 | 0.00 | 81 | 1010.9 |
| 20260505123642 | 53 | 37 | 3.0 | 7.0 | 0.00 | 0.00 | 0.00 | 80 | 1010.9 |
| 20260505122638 | 53 | 68 | 2.0 | 8.0 | 0.00 | 0.00 | 0.00 | 81 | 1010.9 |